Regional Weather Roundup
Issued by NWS

Home | Current Version | Previous Version | Graphics & Text | Print | Product List | Glossary On
Versions: 1 2 3 4 5 6 7 8 9 10 11 12 13 14 15 16 17 18 19 20 21 22 23 24 25 26 27 28 29 30 31 32 33 34 35 36 37 38 39 40 41 42 43 44 45 46 47 48 49 50
072
ASUS45 KTFX 131410
RWRMT
MONTANA REGIONAL WEATHER ROUNDUP
NATIONAL WEATHER SERVICE GREAT FALLS MT
700 AM MST SAT FEB 13 2016

NOTE: "FAIR" INDICATES FEW OR NO CLOUDS BELOW 12000 FEET WITH NO
SIGNIFICANT WEATHER AND/OR OBSTRUCTIONS TO VISIBILITY.

MTZ001>007-043-131500-
WEST OF THE DIVIDE

CITY           SKY/WX    TMP DP  RH WIND       PRES   REMARKS
KALISPELL      CLOUDY    35  34  96 SW6       30.03R WCI  30
MISSOULA       CLOUDY    36  36 100 CALM      30.10R
BUTTE          CLOUDY    35  31  85 W17G23    29.99R WCI  25
MULLAN PASS    SNOW      27  26  96 VRB7      30.03R VSB 1/4 WCI  19
ANACONDA         N/A     34  30  86 W3        30.02R
DEER LODGE       N/A     34  34 100 NW14      30.03R WCI  24
HAMILTON         N/A     39  30  70 SE6       30.10S
PLAINS           N/A     40  35  82 N6        30.09R
$$

MTZ008-052>055-131500-
SOUTHWEST MONTANA

CITY           SKY/WX    TMP DP  RH WIND       PRES   REMARKS
BOZEMAN        CLOUDY    38  27  64 E8        29.93F
DILLON         CLOUDY    35  24  64 SW16      29.94F WCI  25
ENNIS          PTCLDY    36  21  55 S17       30.01F WCI  25
TWIN BRIDGES     N/A     32  21  64 SE5       29.95F
$$

MTZ009-010-012-014-046-048-049-054-131500-
EAST SLOPES AND CENTRAL MONTANA

CITY           SKY/WX    TMP DP  RH WIND       PRES   REMARKS
CUT BANK       MOCLDY    38  26  62 W23G38    29.81F WCI  27
GREAT FALLS    MOCLDY    41  35  79 SW17      29.87F
MALMSTROM AFB  CLOUDY    42  36  79 SW18      29.88F
HELENA         CLOUDY    41  30  65 W21       29.98R
CHOTEAU          N/A     45  23  42 W12G22    29.87R
CONRAD           N/A     40  29  65 S3        29.87R
$$

MTZ011-013-016-021-045-047-050-051-131500-
NORTH CENTRAL MONTANA

CITY           SKY/WX    TMP DP  RH WIND       PRES   REMARKS
HAVRE          CLOUDY    24  23  96 SW8       29.85F WCI  15
LEWISTOWN      LGT RAIN  45  33  63 W22G38    29.88R
N BAR RANCH    MOCLDY    36  30  80 W5        29.86F
CHINOOK          N/A     25  25 100 CALM      29.87R VSB 1
$$

MTZ017>020-022>027-061-062-131500-
NORTHEAST MONTANA

CITY           SKY/WX    TMP DP  RH WIND       PRES   REMARKS
GLASGOW        CLEAR     17  13  84 E16       29.87F WCI   2
JORDAN           N/A     28  26  92 E5        29.85F
SIDNEY         CLOUDY    18  12  79 SE10      30.00F WCI   6
WOLF POINT     CLOUDY    16  11  80 E9        29.94F WCI   4
PLENTYWOOD       N/A     12  10  92 SE13      29.97F WCI  -3
POPLAR           N/A     14  10  85 E6        29.96F WCI   5
SCOBEY           N/A     14   3  61 SE18      29.89F WCI  -3
$$

MTZ028>42-056>058-131500-
SOUTHCENTRAL AND SOUTHEAST MONTANA

CITY           SKY/WX    TMP DP  RH WIND       PRES   REMARKS
BAKER          CLOUDY    22  18  85 SE17      29.95F WCI   8
BILLINGS       CLOUDY    36  28  73 CALM      29.88F
LIVINGSTON     PTCLDY    47  20  34 SW25G38   29.90S
MILES CITY     CLOUDY    30  26  85 SE9       29.91F WCI  22
EKALAKA          N/A     24  20  85 E15       29.89F WCI  11
FORSYTH          N/A     28  27  93 SE5       29.88F
LAUREL           N/A     36  26  67 SW3       29.88F
ROUNDUP          N/A     31  25  78 S10       29.79F WCI  22
$$

REGIONAL REPORTS...DAKOTAS

CITY           SKY/WX    TMP DP  RH WIND       PRES   REMARKS
WILLISTON      CLOUDY    15   9  76 SE13G18   30.05F WCI   1
MINOT          CLOUDY    11   0  61 SE13      30.21F WCI  -4
DICKINSON      LGT SNOW  10   6  84 S22       30.03F FOG     WCI -10
BEACH          CLOUDY    18  18 100 SE17G24   29.99F WCI   2
CROSBY         CLOUDY    14   9  79 S16G30    30.07F WCI  -2
TIOGA          LGT SNOW   9   9 100 SE18G30   30.11F WCI -10
WATFORD CITY   MOCLDY    14   9  79 SE16G23   30.06F WCI  -2
BISMARCK       CLOUDY    10  -3  55 SE16      30.26F WCI  -7
GRAND FORKS    CLOUDY    -7 -14  71 S8        30.55F WCI -23
FARGO          CLOUDY    -5 -11  75 SE7       30.56F WCI -19
BUFFALO SD       N/A     19  17  92 SE13      29.94F WCI   6
RAPID CITY     CLOUDY    30  28  92 SE8       30.01F WCI  22
$$

REGIONAL REPORTS...WYOMING/IDAHO/WASHINGTON

CITY           SKY/WX    TMP DP  RH WIND       PRES   REMARKS
GILLETTE       CLOUDY    33  28  81 SE13      29.94S WCI  24
SHERIDAN       CLOUDY    36  30  80 SW5       29.90F
BUFFALO WY     CLOUDY    46  24  42 VRB5      29.94S
CODY           CLOUDY    46  28  49 W15G26    29.95R
YELLOWSTONE LA   N/A     23  20  88 CALM      30.10F
IDAHO FALLS    CLOUDY    14  11  87 N7        30.17R FOG     WCI   4
SALMON         CLOUDY    25  23  93 NE3       30.06S
BOISE          PTCLDY    31  30  96 NW3       30.28R FOG
SPOKANE        CLOUDY    39  36  89 SW16      30.14R WCI  30
$$

REGIONAL REPORTS...ALBERTA

CITY           SKY/WX    TMP DP  RH WIND       PRES   REMARKS
EDMONTON       MOCLDY    23  19  86 SW9       29.77F WCI  13
CALGARY        MOCLDY    41  19  42 W20G28    29.75R
LETHBRIDGE     PTCLDY    41  27  56 W25G35    29.77S
MEDICINE HAT   CLOUDY    39  32  75 SW17G24   29.72S WCI  30
WATERTON GATE    N/A     37  25  60 SW16G24     N/A  WCI  28
CARDSTON         N/A     41  23  48 W17G30      N/A
MILK RIVER       N/A     37  28  70 W9          N/A  WCI  31
ONEFOUR          N/A     25  23  93 S5          N/A
$$

REGIONAL REPORTS...SASKATCHEWAN

CITY           SKY/WX    TMP DP  RH WIND       PRES   REMARKS
SWIFT CURRENT  CLOUDY    21  19  93 S21G30    29.73F WCI   6
SASKATOON      CLOUDY    14  10  85 S16G23    29.88F WCI  -2
CYPRESS HILLS    N/A     25  23  93 SW1         N/A
VAL MARIE        N/A     21  19  93 SE7         N/A  WCI  13
ROCKGLEN         N/A     12  10  92 S18         N/A  WCI  -5
ASSINIBOIA       N/A     18  18 100 S3          N/A
$$




USA.gov is the U.S. government's official web portal to all federal, state and local government web resources and services.